TimeCDT,TemperatureF,Dew PointF,Humidity,Sea Level PressureIn,VisibilityMPH,Wind Direction,Wind SpeedMPH,Gust SpeedMPH,PrecipitationIn,Events,Conditions,WindDirDegrees,DateUTC
12:56 AM,53.1,44.1,71,30.27,10.0,NNE,4.6,-,N/A,,Scattered Clouds,20,2013-04-25 05:56:00
1:56 AM,52.0,44.1,74,30.27,10.0,ENE,5.8,-,N/A,,Mostly Cloudy,70,2013-04-25 06:56:00
2:56 AM,51.1,43.0,74,30.27,10.0,East,5.8,-,N/A,,Scattered Clouds,80,2013-04-25 07:56:00
3:56 AM,52.0,44.1,74,30.30,10.0,Calm,Calm,-,N/A,,Scattered Clouds,0,2013-04-25 08:56:00
4:56 AM,51.1,44.1,77,30.28,10.0,ENE,6.9,-,N/A,,Scattered Clouds,70,2013-04-25 09:56:00
5:56 AM,51.1,43.0,74,30.30,10.0,ENE,8.1,-,N/A,,Partly Cloudy,70,2013-04-25 10:56:00
6:56 AM,51.1,43.0,74,30.32,10.0,ENE,4.6,-,N/A,,Partly Cloudy,70,2013-04-25 11:56:00
7:56 AM,53.1,43.0,69,30.34,10.0,East,6.9,-,N/A,,Scattered Clouds,80,2013-04-25 12:56:00
8:56 AM,55.9,42.1,60,30.36,10.0,East,6.9,-,N/A,,Partly Cloudy,90,2013-04-25 13:56:00
9:56 AM,60.1,42.1,51,30.36,10.0,ENE,9.2,19.6,N/A,,Partly Cloudy,70,2013-04-25 14:56:00
10:03 AM,60.8,42.8,52,30.36,10.0,East,9.2,-,N/A,,Partly Cloudy,90,2013-04-25 15:03:00
10:56 AM,63.0,39.9,43,30.36,10.0,ENE,11.5,-,N/A,,Partly Cloudy,60,2013-04-25 15:56:00
11:56 AM,64.9,39.0,39,30.35,10.0,East,11.5,16.1,N/A,,Scattered Clouds,90,2013-04-25 16:56:00
12:56 PM,68.0,39.0,35,30.32,10.0,ENE,8.1,-,N/A,,Partly Cloudy,60,2013-04-25 17:56:00
1:03 PM,68.0,37.4,33,30.32,10.0,ESE,8.1,-,N/A,,Partly Cloudy,110,2013-04-25 18:03:00
1:56 PM,71.1,41.0,34,30.30,10.0,East,9.2,-,N/A,,Partly Cloudy,100,2013-04-25 18:56:00
2:56 PM,71.1,39.0,31,30.28,10.0,East,6.9,-,N/A,,Partly Cloudy,90,2013-04-25 19:56:00
3:56 PM,73.0,39.9,30,30.25,10.0,ENE,8.1,-,N/A,,Partly Cloudy,70,2013-04-25 20:56:00
4:11 PM,71.6,37.4,29,30.25,10.0,East,9.2,-,N/A,,Partly Cloudy,100,2013-04-25 21:11:00
4:56 PM,73.0,39.9,30,30.24,10.0,East,11.5,16.1,N/A,,Partly Cloudy,100,2013-04-25 21:56:00
5:56 PM,72.0,39.0,30,30.24,10.0,SE,9.2,-,N/A,,Partly Cloudy,140,2013-04-25 22:56:00
6:56 PM,69.8,39.2,33,30.25,10.0,SE,9.2,-,N/A,,Partly Cloudy,140,2013-04-25 23:56:00
7:56 PM,64.0,41.0,43,30.22,10.0,ESE,6.9,-,N/A,,Partly Cloudy,110,2013-04-26 00:56:00
8:56 PM,61.0,42.1,50,30.23,10.0,East,6.9,-,N/A,,Partly Cloudy,100,2013-04-26 01:56:00
9:56 PM,57.9,42.1,56,30.26,10.0,East,5.8,-,N/A,,Partly Cloudy,90,2013-04-26 02:56:00
10:56 PM,59.0,42.1,53,30.27,10.0,ESE,4.6,-,N/A,,Clear,110,2013-04-26 03:56:00
11:56 PM,57.0,42.1,57,30.25,10.0,ESE,4.6,-,N/A,,Clear,120,2013-04-26 04:56:00